Orbital elements:
2016 PT8                                                 Earth MOID = 0.0195 AU
Epoch 2019 Apr. 27.0 TT = JDT 2458600.5                 MPC
M  73.05762              (2000.0)            P               Q
n   0.46883333     Peri.   89.28845     +0.76768439     -0.63974916
a   1.6410573      Node   310.48382     +0.56679793     +0.70492019
e   0.5063352      Incl.    2.80124     +0.29899964     +0.30628180
P   2.10           H   23.8           G   0.15           U   3
Residuals in seconds of arc
160807 F51  0.2+  0.2+    190109 T05  1.0+  0.7-    190110 K51  0.2+  0.1-
160807 F51  0.2+  0.1-    190109 T05  0.6+  0.1+    190110 106  0.5+  0.6-
160807 F51  0.1+  0.2+    190109 T05  0.8-  0.6+    190110 106  0.2-  0.3+
160808 807  0.3+  0.7+    190109 J04  0.0   0.0     190110 106  0.9+  0.4+
160808 807  0.3+  0.1-    190109 J04  0.1-  0.1+    190110 204  0.2+  0.5-
160808 807  0.0   0.1+    190109 J04  0.2-  0.3+    190110 204  0.3+  0.3-
160808 H21  1.8-  0.5+    190109 L01  0.0   0.2+    190110 204  0.2+  0.2-
160808 H21  2.0-  0.0     190109 L01  0.2-  0.3+    190110 204  0.4+  0.3-
160808 H21  2.3-  0.4+    190109 L01  0.2+  0.1+    190110 204  0.2+  0.2-
160808 F51  0.2+  0.2+    190109 L01  0.1+  0.1-    190110 W34  0.4+  0.4-
160808 F51  0.3+  0.3+    190110 J95  0.1+  0.1+    190111 W34  0.0   1.0+
160808 F51  0.3+  0.2+    190110 J95  0.1+  0.1+    190111 W34  0.3+  0.7+
160809 807  0.4+  0.5-    190110 J95  0.2-  0.3+    190111 W34  0.3-  0.0
160809 807  0.4+  0.4-    190110 H21  0.1+  0.1-    190111 W34  0.6-  0.6-
160809 807  0.4+  0.0     190110 H21  0.4+  0.2+    190111 I52  0.3+  0.2-
160809 568  0.0   0.1-    190110 H21  0.3+  0.1-    190111 I52  0.0   0.2-
160809 568  0.0   0.1-    190110 H21  0.3+  0.1-    190111 I52  1.3-  1.7+
190109 G96  1.0-  0.4+    190110 H21  0.1+  0.2-    190111 I52  1.5-  1.6+
190109 G96  2.1+  1.5-    190110 H21  0.4+  0.1+    190111 104  0.0   0.2-
190109 G96  0.2-  0.3+    190110 H21  0.2+  0.0     190111 104  0.1+  0.3-
190109 I52  0.3-  0.1+    190110 K63  0.1-  0.2+    190111 104  0.0   0.2-
190109 I52  0.4-  0.1+    190110 K63  0.1+  0.0     190111 C77  0.6-  0.4+
190109 I52  0.3-  0.1-    190110 K38  0.1-  0.0     190111 C77  0.3-  0.5+
190109 I52  0.8-  0.6-    190110 K63  0.8-  0.3-    190111 C77  0.4-  0.1-
190109 I52  0.5+  0.3-    190110 203  0.2+  0.1+    190111 B49  0.1-  0.6-
190109 I52  0.1-  0.0     190110 K63  0.3-  0.2-    190111 B49  0.2+  0.2-
190109 I52  0.4+  0.8-    190110 K38  1.0+  0.7+    190112 I52  0.2-  1.2-
190109 I52  0.1-  0.1+    190110 203  0.1+  0.0     190112 I52  0.1-  0.3-
190109 I52  0.3-  0.2+    190110 K38  0.4-  0.2-    190112 I52  0.5-  1.0-
190109 I52  0.3-  0.1+    190110 203  0.1+  0.2-    190112 I52  0.5+  0.3-
190109 I52  0.4-  0.0     190110 K51  0.0   0.0
190109 T05  0.2-  0.3-    190110 K51  0.2+  0.1-

Ephemeris:
2016 PT8                 a,e,i = 1.64, 0.51, 3                   q = 0.8101
Date    TT    R. A. (2000) Decl.     Delta      r     Elong.  Phase     V
2018 12 14    20 03 02.1 -08 29 51   0.1721  0.8616    40.8   131.6    25.5
...
2018 12 29    20 57 15.0 +10 30 02   0.06050 0.9450    49.3   127.9    23.1
...
2019 01 06    02 10 00.6 +56 26 52   0.03388 0.9994   117.5    60.8    18.6
...
2019 01 12    06 17 57.7 +39 18 29   0.06466 1.0430   156.4    22.1    19.0
2019 01 13    06 29 13.2 +37 03 53   0.07151 1.0505   158.8    19.8    19.2
2019 01 14    06 38 02.7 +35 09 41   0.07858 1.0580   160.6    17.9    19.3
...
2019 01 20    07 06 38.2 +28 07 33   0.1239  1.1037   164.4    13.9    20.3
...
2019 01 28    07 22 26.8 +23 54 38   0.1898  1.1660   161.2    15.8    21.4
...
2019 02 12    07 38 42.7 +20 33 31   0.3300  1.2841   150.3    22.4    23.0

A. U. Tomatic                (C) Copyright 2019 MPC           M.P.E.C. 2019-A208



More information about the Iaude mailing list